Year,Month,Day,Hour,Minute,Value (Times are PST for temperature in C)
2018,05,30,00,00,8.60
2018,05,30,00,01,8.60
2018,05,30,00,02,8.60
2018,05,30,00,03,8.60
2018,05,30,00,04,8.60
2018,05,30,00,05,8.60
2018,05,30,00,06,8.60
2018,05,30,00,07,8.50
2018,05,30,00,08,8.50
2018,05,30,00,09,8.50
2018,05,30,00,10,8.50
2018,05,30,00,11,8.40
2018,05,30,00,12,8.40
2018,05,30,00,13,8.40
2018,05,30,00,14,8.40
2018,05,30,00,15,8.40
2018,05,30,00,16,8.30
2018,05,30,00,17,8.30
2018,05,30,00,18,8.30
2018,05,30,00,19,8.30
2018,05,30,00,20,8.30
2018,05,30,00,21,8.30
2018,05,30,00,22,8.30
2018,05,30,00,23,8.30
2018,05,30,00,24,8.30
2018,05,30,00,25,8.30
2018,05,30,00,26,8.30
2018,05,30,00,27,8.30
2018,05,30,00,28,8.20
2018,05,30,00,29,8.20
2018,05,30,00,30,8.20
2018,05,30,00,31,8.20
2018,05,30,00,32,8.20
2018,05,30,00,33,8.20
2018,05,30,00,34,8.10
2018,05,30,00,35,8.10
2018,05,30,00,36,8.10
2018,05,30,00,37,8.10
2018,05,30,00,38,8.00
2018,05,30,00,39,8.00
2018,05,30,00,40,8.00
2018,05,30,00,41,8.00
2018,05,30,00,42,7.90
2018,05,30,00,43,7.90
2018,05,30,00,44,7.90
2018,05,30,00,45,7.90
2018,05,30,00,46,7.90
2018,05,30,00,47,7.90
2018,05,30,00,48,7.90
2018,05,30,00,49,7.80
2018,05,30,00,50,7.80
2018,05,30,00,51,7.80
2018,05,30,00,52,7.80
2018,05,30,00,53,7.80
2018,05,30,00,54,7.80
2018,05,30,00,55,7.80
2018,05,30,00,56,7.70
2018,05,30,00,57,7.70
2018,05,30,00,58,7.70
2018,05,30,00,59,7.70
2018,05,30,01,00,7.70
2018,05,30,01,01,7.70
2018,05,30,01,02,7.70
2018,05,30,01,03,7.60
2018,05,30,01,04,7.60
2018,05,30,01,05,7.60
2018,05,30,01,06,7.60
2018,05,30,01,07,7.60
2018,05,30,01,08,7.60
2018,05,30,01,09,7.60
2018,05,30,01,10,7.50
2018,05,30,01,11,7.50
2018,05,30,01,12,7.50
2018,05,30,01,13,7.40
2018,05,30,01,14,7.40
2018,05,30,01,15,7.40
2018,05,30,01,16,7.40
2018,05,30,01,17,7.40
2018,05,30,01,18,7.40
2018,05,30,01,19,7.30
2018,05,30,01,20,7.30
2018,05,30,01,21,7.30
2018,05,30,01,22,7.30
2018,05,30,01,23,7.30
2018,05,30,01,24,7.30
2018,05,30,01,25,7.30
2018,05,30,01,26,7.30
2018,05,30,01,27,7.30
2018,05,30,01,28,7.30
2018,05,30,01,29,7.20
2018,05,30,01,30,7.20
2018,05,30,01,31,7.20
2018,05,30,01,32,7.20
2018,05,30,01,33,7.20
2018,05,30,01,34,7.20
2018,05,30,01,35,7.20
2018,05,30,01,36,7.10
2018,05,30,01,37,7.10
2018,05,30,01,38,7.10
2018,05,30,01,39,7.10
2018,05,30,01,40,7.10
2018,05,30,01,41,7.10
2018,05,30,01,42,7.10
2018,05,30,01,43,7.10
2018,05,30,01,44,7.10
2018,05,30,01,45,7.00
2018,05,30,01,46,7.00
2018,05,30,01,47,7.00
2018,05,30,01,48,7.00
2018,05,30,01,49,7.00
2018,05,30,01,50,7.00
2018,05,30,01,51,6.90
2018,05,30,01,52,6.90
2018,05,30,01,53,6.90
2018,05,30,01,54,6.90
2018,05,30,01,55,6.90
2018,05,30,01,56,6.90
2018,05,30,01,57,6.90
2018,05,30,01,58,6.90
2018,05,30,01,59,6.90
2018,05,30,02,00,6.90
2018,05,30,02,01,6.90
2018,05,30,02,02,6.90
2018,05,30,02,03,6.90
2018,05,30,02,04,6.90
2018,05,30,02,05,6.80
2018,05,30,02,06,6.80
2018,05,30,02,07,6.80
2018,05,30,02,08,6.80
2018,05,30,02,09,6.80
2018,05,30,02,10,6.70
2018,05,30,02,11,6.70
2018,05,30,02,12,6.70
2018,05,30,02,13,6.70
2018,05,30,02,14,6.70
2018,05,30,02,15,6.70
2018,05,30,02,16,6.70
2018,05,30,02,17,6.70
2018,05,30,02,18,6.60
2018,05,30,02,19,6.60
2018,05,30,02,20,6.60
2018,05,30,02,21,6.60
2018,05,30,02,22,6.60
2018,05,30,02,23,6.60
2018,05,30,02,24,6.60
2018,05,30,02,25,6.60
2018,05,30,02,26,6.60
2018,05,30,02,27,6.60
2018,05,30,02,28,6.60
2018,05,30,02,29,6.60
2018,05,30,02,30,6.60
2018,05,30,02,31,6.60
2018,05,30,02,32,6.60
2018,05,30,02,33,6.60
2018,05,30,02,34,6.60
2018,05,30,02,35,6.60
2018,05,30,02,36,6.60
2018,05,30,02,37,6.60
2018,05,30,02,38,6.50
2018,05,30,02,39,6.60
2018,05,30,02,40,6.50
2018,05,30,02,41,6.50
2018,05,30,02,42,6.60
2018,05,30,02,43,6.60
2018,05,30,02,44,6.60
2018,05,30,02,45,6.60
2018,05,30,02,46,6.60
2018,05,30,02,47,6.60
2018,05,30,02,48,6.60
2018,05,30,02,49,6.60
2018,05,30,02,50,6.60
2018,05,30,02,51,6.60
2018,05,30,02,52,6.60
2018,05,30,02,53,6.60
2018,05,30,02,54,6.60
2018,05,30,02,55,6.60
2018,05,30,02,56,6.60
2018,05,30,02,57,6.60
2018,05,30,02,58,6.60
2018,05,30,02,59,6.60
2018,05,30,03,00,6.60
2018,05,30,03,01,6.60
2018,05,30,03,02,6.60
2018,05,30,03,06,6.60
2018,05,30,03,07,6.60
2018,05,30,03,08,6.60
2018,05,30,03,09,6.60
2018,05,30,03,10,6.60
2018,05,30,03,11,6.60
2018,05,30,03,12,6.60
2018,05,30,03,13,6.60
2018,05,30,03,14,6.60
2018,05,30,03,15,6.60
2018,05,30,03,16,6.60
2018,05,30,03,17,6.60
2018,05,30,03,18,6.60
2018,05,30,03,19,6.60
2018,05,30,03,20,6.60
2018,05,30,03,21,6.60
2018,05,30,03,22,6.60
2018,05,30,03,23,6.60
2018,05,30,03,24,6.60
2018,05,30,03,25,6.60
2018,05,30,03,26,6.60
2018,05,30,03,27,6.60
2018,05,30,03,28,6.60
2018,05,30,03,29,6.60
2018,05,30,03,30,6.60
2018,05,30,03,31,6.60
2018,05,30,03,32,6.60
2018,05,30,03,33,6.60
2018,05,30,03,34,6.60
2018,05,30,03,35,6.60
2018,05,30,03,36,6.60
2018,05,30,03,37,6.60
2018,05,30,03,38,6.60
2018,05,30,03,39,6.60
2018,05,30,03,40,6.50
2018,05,30,03,41,6.50
2018,05,30,03,42,6.50
2018,05,30,03,43,6.50
2018,05,30,03,44,6.50
2018,05,30,03,45,6.50
2018,05,30,03,46,6.50
2018,05,30,03,47,6.50
2018,05,30,03,48,6.50
2018,05,30,03,49,6.50
2018,05,30,03,50,6.50
2018,05,30,03,51,6.50
2018,05,30,03,52,6.50
2018,05,30,03,53,6.40
2018,05,30,03,54,6.40
2018,05,30,03,55,6.40
2018,05,30,03,56,6.40
2018,05,30,03,57,6.40
2018,05,30,03,58,6.40
2018,05,30,03,59,6.40
2018,05,30,04,00,6.30
2018,05,30,04,01,6.30
2018,05,30,04,02,6.30
2018,05,30,04,03,6.30
2018,05,30,04,04,6.30
2018,05,30,04,05,6.30
2018,05,30,04,06,6.30
2018,05,30,04,07,6.30
2018,05,30,04,08,6.20
2018,05,30,04,09,6.20
2018,05,30,04,10,6.20
2018,05,30,04,11,6.20
2018,05,30,04,12,6.20
2018,05,30,04,13,6.20
2018,05,30,04,14,6.20
2018,05,30,04,15,6.30
2018,05,30,04,16,6.30
2018,05,30,04,17,6.30
2018,05,30,04,18,6.30
2018,05,30,04,19,6.30
2018,05,30,04,20,6.30
2018,05,30,04,21,6.30
2018,05,30,04,22,6.30
2018,05,30,04,23,6.30
2018,05,30,04,24,6.30
2018,05,30,04,25,6.30
2018,05,30,04,26,6.30
2018,05,30,04,27,6.30
2018,05,30,04,28,6.30
2018,05,30,04,29,6.30
2018,05,30,04,30,6.30
2018,05,30,04,31,6.30
2018,05,30,04,32,6.30
2018,05,30,04,33,6.30
2018,05,30,04,34,6.30
2018,05,30,04,35,6.30
2018,05,30,04,36,6.30
2018,05,30,04,37,6.30
2018,05,30,04,38,6.40
2018,05,30,04,39,6.40
2018,05,30,04,40,6.30
2018,05,30,04,41,6.30
2018,05,30,04,42,6.30
2018,05,30,04,43,6.30
2018,05,30,04,44,6.30
2018,05,30,04,45,6.30
2018,05,30,04,46,6.30
2018,05,30,04,47,6.30
2018,05,30,04,48,6.30
2018,05,30,04,49,6.30
2018,05,30,04,50,6.20
2018,05,30,04,51,6.20
2018,05,30,04,52,6.20
2018,05,30,04,53,6.20
2018,05,30,04,54,6.20
2018,05,30,04,55,6.20
2018,05,30,04,56,6.20
2018,05,30,04,57,6.10
2018,05,30,04,58,6.10
2018,05,30,04,59,6.10
2018,05,30,05,00,6.10
2018,05,30,05,01,6.10
2018,05,30,05,02,6.10
2018,05,30,05,03,6.00
2018,05,30,05,04,6.00
2018,05,30,05,05,6.00
2018,05,30,05,06,6.00
2018,05,30,05,07,6.00
2018,05,30,05,08,6.00
2018,05,30,05,09,6.00
2018,05,30,05,10,6.00
2018,05,30,05,11,6.00
2018,05,30,05,12,6.00
2018,05,30,05,13,6.00
2018,05,30,05,14,6.00
2018,05,30,05,15,6.00
2018,05,30,05,16,6.00
2018,05,30,05,17,6.00
2018,05,30,05,18,6.00
2018,05,30,05,19,6.00
2018,05,30,05,20,6.00
2018,05,30,05,21,6.00
2018,05,30,05,22,6.00
2018,05,30,05,23,6.00
2018,05,30,05,24,6.00
2018,05,30,05,25,6.00
2018,05,30,05,26,6.00
2018,05,30,05,27,6.00
2018,05,30,05,28,5.90
2018,05,30,05,29,5.90
2018,05,30,05,30,5.90
2018,05,30,05,31,5.90
2018,05,30,05,32,5.90
2018,05,30,05,33,5.90
2018,05,30,05,34,5.90
2018,05,30,05,35,5.90
2018,05,30,05,36,5.90
2018,05,30,05,37,5.90
2018,05,30,05,38,5.90
2018,05,30,05,39,5.90
2018,05,30,05,40,5.90
2018,05,30,05,41,5.90
2018,05,30,05,42,5.90
2018,05,30,05,43,5.80
2018,05,30,05,44,5.80
2018,05,30,05,45,5.80
2018,05,30,05,46,5.80
2018,05,30,05,47,5.80
2018,05,30,05,48,5.80
2018,05,30,05,49,5.80
2018,05,30,05,50,5.80
2018,05,30,05,51,5.80
2018,05,30,05,52,5.80
2018,05,30,05,53,5.80
2018,05,30,05,54,5.80
2018,05,30,05,55,5.80
2018,05,30,05,56,5.80
2018,05,30,05,57,5.80
2018,05,30,05,58,5.80
2018,05,30,05,59,5.80
2018,05,30,06,00,5.80
2018,05,30,06,01,5.80
2018,05,30,06,02,5.70
2018,05,30,06,03,5.70
2018,05,30,06,04,5.70
2018,05,30,06,05,5.70
2018,05,30,06,06,5.80
2018,05,30,06,07,5.80
2018,05,30,06,08,5.80
2018,05,30,06,09,5.80
2018,05,30,06,10,5.80
2018,05,30,06,11,5.80
2018,05,30,06,12,5.80
2018,05,30,06,13,5.80
2018,05,30,06,14,5.80
2018,05,30,06,15,5.90
2018,05,30,06,16,5.90
2018,05,30,06,17,5.90
2018,05,30,06,18,5.90
2018,05,30,06,19,5.90
2018,05,30,06,20,5.90
2018,05,30,06,21,6.00
2018,05,30,06,22,6.00
2018,05,30,06,23,6.00
2018,05,30,06,24,6.00
2018,05,30,06,25,6.10
2018,05,30,06,26,6.10
2018,05,30,06,27,6.10
2018,05,30,06,28,6.10
2018,05,30,06,29,6.10
2018,05,30,06,30,6.20
2018,05,30,06,31,6.20
2018,05,30,06,32,6.30
2018,05,30,06,33,6.30
2018,05,30,06,34,6.30
2018,05,30,06,35,6.40
2018,05,30,06,36,6.40
2018,05,30,06,37,6.40
2018,05,30,06,38,6.50
2018,05,30,06,39,6.50
2018,05,30,06,40,6.60
2018,05,30,06,41,6.60
2018,05,30,06,42,6.70
2018,05,30,06,43,6.70
2018,05,30,06,44,6.80
2018,05,30,06,45,6.80
2018,05,30,06,46,6.90
2018,05,30,06,47,6.90
2018,05,30,06,48,7.00
2018,05,30,06,49,7.10
2018,05,30,06,50,7.10
2018,05,30,06,51,7.20
2018,05,30,06,52,7.20
2018,05,30,06,53,7.30
2018,05,30,06,54,7.30
2018,05,30,06,55,7.40
2018,05,30,06,56,7.40
2018,05,30,06,57,7.50
2018,05,30,06,58,7.50
2018,05,30,06,59,7.60
2018,05,30,07,00,7.60
2018,05,30,07,01,7.70
2018,05,30,07,02,7.80
2018,05,30,07,03,7.80
2018,05,30,07,04,7.90
2018,05,30,07,05,7.90
2018,05,30,07,06,7.90
2018,05,30,07,07,8.00
2018,05,30,07,08,8.10
2018,05,30,07,09,8.10
2018,05,30,07,10,8.20
2018,05,30,07,11,8.20
2018,05,30,07,12,8.30
2018,05,30,07,13,8.40
2018,05,30,07,14,8.50
2018,05,30,07,15,8.50
2018,05,30,07,16,8.60
2018,05,30,07,17,8.70
2018,05,30,07,18,8.80
2018,05,30,07,19,8.90
2018,05,30,07,20,8.90
2018,05,30,07,21,9.00
2018,05,30,07,22,9.10
2018,05,30,07,23,9.20
2018,05,30,07,24,9.30
2018,05,30,07,25,9.40
2018,05,30,07,26,9.40
2018,05,30,07,27,9.50
2018,05,30,07,28,9.60
2018,05,30,07,29,9.70
2018,05,30,07,30,9.70
2018,05,30,07,31,9.80
2018,05,30,07,32,9.90
2018,05,30,07,33,9.90
2018,05,30,07,34,10.00
2018,05,30,07,35,10.10
2018,05,30,07,36,10.20
2018,05,30,07,37,10.20
2018,05,30,07,38,10.30
2018,05,30,07,39,10.30
2018,05,30,07,40,10.40
2018,05,30,07,41,10.40
2018,05,30,07,42,10.50
2018,05,30,07,43,10.50
2018,05,30,07,44,10.50
2018,05,30,07,45,10.60
2018,05,30,07,46,10.60
2018,05,30,07,47,10.60
2018,05,30,07,48,10.60
2018,05,30,07,49,10.70
2018,05,30,07,50,10.70
2018,05,30,07,51,10.70
2018,05,30,07,52,10.70
2018,05,30,07,53,10.70
2018,05,30,07,54,10.80
2018,05,30,07,55,10.80
2018,05,30,07,56,10.80
2018,05,30,07,57,10.80
2018,05,30,07,58,10.80
2018,05,30,07,59,10.80
2018,05,30,08,00,10.90
2018,05,30,08,01,10.90
2018,05,30,08,02,11.00
2018,05,30,08,03,11.00
2018,05,30,08,04,11.10
2018,05,30,08,05,11.10
2018,05,30,08,06,11.20
2018,05,30,08,07,11.20
2018,05,30,08,08,11.30
2018,05,30,08,09,11.30
2018,05,30,08,10,11.40
2018,05,30,08,11,11.40
2018,05,30,08,12,11.40
2018,05,30,08,13,11.50
2018,05,30,08,14,11.60
2018,05,30,08,15,11.60
2018,05,30,08,16,11.70
2018,05,30,08,17,11.70
2018,05,30,08,18,11.80
2018,05,30,08,19,11.80
2018,05,30,08,20,11.80
2018,05,30,08,21,11.80
2018,05,30,08,22,11.80
2018,05,30,08,23,11.80
2018,05,30,08,24,11.80
2018,05,30,08,25,11.80
2018,05,30,08,26,11.80
2018,05,30,08,27,11.80
2018,05,30,08,28,11.70
2018,05,30,08,29,11.70
2018,05,30,08,30,11.70
2018,05,30,08,31,11.70
2018,05,30,08,32,11.70
2018,05,30,08,33,11.70
2018,05,30,08,34,11.70
2018,05,30,08,35,11.70
2018,05,30,08,36,11.70
2018,05,30,08,37,11.70
2018,05,30,08,38,11.70
2018,05,30,08,39,11.70
2018,05,30,08,40,11.70
2018,05,30,08,41,11.70
2018,05,30,08,42,11.70
2018,05,30,08,43,11.70
2018,05,30,08,44,11.70
2018,05,30,08,45,11.70
2018,05,30,08,46,11.80
2018,05,30,08,47,11.80
2018,05,30,08,48,11.80
2018,05,30,08,49,11.80
2018,05,30,08,50,11.90
2018,05,30,08,51,11.90
2018,05,30,08,52,11.90
2018,05,30,08,53,12.00
2018,05,30,08,54,12.10
2018,05,30,08,55,12.10
2018,05,30,08,56,12.20
2018,05,30,08,57,12.20
2018,05,30,08,58,12.20
2018,05,30,08,59,12.30
2018,05,30,09,00,12.30
2018,05,30,09,01,12.30
2018,05,30,09,02,12.40
2018,05,30,09,03,12.40
2018,05,30,09,04,12.40
2018,05,30,09,05,12.40
2018,05,30,09,06,12.40
2018,05,30,09,07,12.40
2018,05,30,09,08,12.40
2018,05,30,09,09,12.40
2018,05,30,09,10,12.40
2018,05,30,09,11,12.40
2018,05,30,09,12,12.40
2018,05,30,09,13,12.50
2018,05,30,09,14,12.60
2018,05,30,09,15,12.60
2018,05,30,09,16,12.70
2018,05,30,09,17,12.70
2018,05,30,09,18,12.70
2018,05,30,09,19,12.80
2018,05,30,09,20,12.80
2018,05,30,09,21,12.80
2018,05,30,09,22,12.80
2018,05,30,09,23,12.90
2018,05,30,09,24,12.90
2018,05,30,09,25,12.90
2018,05,30,09,26,12.90
2018,05,30,09,27,13.00
2018,05,30,09,28,13.00
2018,05,30,09,29,13.10
2018,05,30,09,30,13.10
2018,05,30,09,31,13.20
2018,05,30,09,32,13.20
2018,05,30,09,33,13.30
2018,05,30,09,34,13.30
2018,05,30,09,35,13.30
2018,05,30,09,36,13.30
2018,05,30,09,37,13.30
2018,05,30,09,38,13.30
2018,05,30,09,39,13.30
2018,05,30,09,40,13.30
2018,05,30,09,41,13.30
2018,05,30,09,42,13.30
2018,05,30,09,43,13.30
2018,05,30,09,44,13.30
2018,05,30,09,45,13.30
2018,05,30,09,46,13.30
2018,05,30,09,47,13.30
2018,05,30,09,48,13.30
2018,05,30,09,49,13.40
2018,05,30,09,50,13.40
2018,05,30,09,51,13.40
2018,05,30,09,52,13.50
2018,05,30,09,53,13.60
2018,05,30,09,54,13.60
2018,05,30,09,55,13.60
2018,05,30,09,56,13.50
2018,05,30,09,57,13.40
2018,05,30,09,58,13.30
2018,05,30,09,59,13.30
2018,05,30,10,00,13.30
2018,05,30,10,01,13.30
2018,05,30,10,02,13.30
2018,05,30,10,03,13.30
2018,05,30,10,04,13.30
2018,05,30,10,05,13.30
2018,05,30,10,06,13.30
2018,05,30,10,07,13.30
2018,05,30,10,08,13.30
2018,05,30,10,09,13.40
2018,05,30,10,10,13.50
2018,05,30,10,11,13.50
2018,05,30,10,12,13.60
2018,05,30,10,13,13.70
2018,05,30,10,14,13.70
2018,05,30,10,15,13.70
2018,05,30,10,16,13.70
2018,05,30,10,17,13.70
2018,05,30,10,18,13.70
2018,05,30,10,19,13.70
2018,05,30,10,20,13.70
2018,05,30,10,21,13.70
2018,05,30,10,22,13.70
2018,05,30,10,23,13.80
2018,05,30,10,24,13.80
2018,05,30,10,25,13.80
2018,05,30,10,26,13.80
2018,05,30,10,27,13.80
2018,05,30,10,28,13.80
2018,05,30,10,29,13.80
2018,05,30,10,30,13.80
2018,05,30,10,31,13.70
2018,05,30,10,32,13.70
2018,05,30,10,33,13.70
2018,05,30,10,34,13.60
2018,05,30,10,35,13.60
2018,05,30,10,36,13.60
2018,05,30,10,37,13.50
2018,05,30,10,38,13.50
2018,05,30,10,39,13.50
2018,05,30,10,40,13.40
2018,05,30,10,41,13.40
2018,05,30,10,42,13.40
2018,05,30,10,43,13.40
2018,05,30,10,44,13.40
2018,05,30,10,45,13.40
2018,05,30,10,46,13.40
2018,05,30,10,47,13.40
2018,05,30,10,48,13.40
2018,05,30,10,49,13.50
2018,05,30,10,50,13.60
2018,05,30,10,51,13.70
2018,05,30,10,52,13.70
2018,05,30,10,53,13.80
2018,05,30,10,54,13.80
2018,05,30,10,55,13.90
2018,05,30,10,56,14.00
2018,05,30,10,57,14.10
2018,05,30,10,58,14.10
2018,05,30,10,59,14.10
2018,05,30,11,00,14.10
2018,05,30,11,01,14.20
2018,05,30,11,02,14.20
2018,05,30,11,03,14.30
2018,05,30,11,04,14.40
2018,05,30,11,05,14.40
2018,05,30,11,06,14.50
2018,05,30,11,07,14.60
2018,05,30,11,08,14.60
2018,05,30,11,09,14.50
2018,05,30,11,10,14.40
2018,05,30,11,11,14.40
2018,05,30,11,12,14.30
2018,05,30,11,13,14.20
2018,05,30,11,14,14.20
2018,05,30,11,15,14.10
2018,05,30,11,16,14.10
2018,05,30,11,17,14.00
2018,05,30,11,18,14.00
2018,05,30,11,19,14.00
2018,05,30,11,20,13.90
2018,05,30,11,21,13.90
2018,05,30,11,22,13.90
2018,05,30,11,23,13.90
2018,05,30,11,24,13.80
2018,05,30,11,25,13.80
2018,05,30,11,26,13.80
2018,05,30,11,27,13.80
2018,05,30,11,28,13.80
2018,05,30,11,29,13.80
2018,05,30,11,30,13.80
2018,05,30,11,31,13.90
2018,05,30,11,32,13.90
2018,05,30,11,33,13.90
2018,05,30,11,34,13.90
2018,05,30,11,35,13.90
2018,05,30,11,36,13.90
2018,05,30,11,37,13.90
2018,05,30,11,38,14.00
2018,05,30,11,39,14.00
2018,05,30,11,40,13.90
2018,05,30,11,41,13.90
2018,05,30,11,42,13.90
2018,05,30,11,43,13.90
2018,05,30,11,44,13.90
2018,05,30,11,45,13.90
2018,05,30,11,46,14.00
2018,05,30,11,47,14.00
2018,05,30,11,48,14.10
2018,05,30,11,49,14.20
2018,05,30,11,50,14.30
2018,05,30,11,51,14.30
2018,05,30,11,52,14.40
2018,05,30,11,53,14.40
2018,05,30,11,54,14.40
2018,05,30,11,55,14.40
2018,05,30,11,56,14.40
2018,05,30,11,57,14.40
2018,05,30,11,58,14.40
2018,05,30,11,59,14.50
2018,05,30,12,00,14.60
2018,05,30,12,01,14.50
2018,05,30,12,02,14.50
2018,05,30,12,03,14.40
2018,05,30,12,04,14.50
2018,05,30,12,05,14.50
2018,05,30,12,06,14.60
2018,05,30,12,07,14.60
2018,05,30,12,08,14.70
2018,05,30,12,09,14.70
2018,05,30,12,10,14.70
2018,05,30,12,11,14.70
2018,05,30,12,12,14.70
2018,05,30,12,13,14.70
2018,05,30,12,14,14.70
2018,05,30,12,15,14.70
2018,05,30,12,16,14.70
2018,05,30,12,17,14.60
2018,05,30,12,18,14.60
2018,05,30,12,19,14.60
2018,05,30,12,20,14.60
2018,05,30,12,21,14.60
2018,05,30,12,22,14.60
2018,05,30,12,23,14.60
2018,05,30,12,24,14.60
2018,05,30,12,25,14.60
2018,05,30,12,26,14.60
2018,05,30,12,27,14.60
2018,05,30,12,28,14.60
2018,05,30,12,29,14.70
2018,05,30,12,30,14.70
2018,05,30,12,31,14.70
2018,05,30,12,32,14.70
2018,05,30,12,33,14.60
2018,05,30,12,34,14.60
2018,05,30,12,35,14.50
2018,05,30,12,36,14.50
2018,05,30,12,37,14.50
2018,05,30,12,38,14.50
2018,05,30,12,39,14.40
2018,05,30,12,40,14.40
2018,05,30,12,41,14.40
2018,05,30,12,42,14.40
2018,05,30,12,43,14.40
2018,05,30,12,44,14.40
2018,05,30,12,45,14.50
2018,05,30,12,46,14.50
2018,05,30,12,47,14.50
2018,05,30,12,48,14.50
2018,05,30,12,49,14.50
2018,05,30,12,50,14.40
2018,05,30,12,51,14.40
2018,05,30,12,52,14.40
2018,05,30,12,53,14.40
2018,05,30,12,54,14.30
2018,05,30,12,55,14.30
2018,05,30,12,56,14.30
2018,05,30,12,57,14.40
2018,05,30,12,58,14.40
2018,05,30,12,59,14.40
2018,05,30,13,00,14.40
2018,05,30,13,01,14.50
2018,05,30,13,02,14.60
2018,05,30,13,03,14.60
2018,05,30,13,04,14.70
2018,05,30,13,05,14.80
2018,05,30,13,06,14.90
2018,05,30,13,07,15.00
2018,05,30,13,08,15.00
2018,05,30,13,09,15.10
2018,05,30,13,10,15.20
2018,05,30,13,11,15.20
2018,05,30,13,12,15.30
2018,05,30,13,13,15.40
2018,05,30,13,14,15.50
2018,05,30,13,15,15.50
2018,05,30,13,16,15.60
2018,05,30,13,17,15.60
2018,05,30,13,18,15.60
2018,05,30,13,19,15.60
2018,05,30,13,20,15.60
2018,05,30,13,21,15.70
2018,05,30,13,22,15.70
2018,05,30,13,23,15.70
2018,05,30,13,24,15.70
2018,05,30,13,25,15.70
2018,05,30,13,26,15.70
2018,05,30,13,27,15.70
2018,05,30,13,28,15.70
2018,05,30,13,29,15.70
2018,05,30,13,30,15.70
2018,05,30,13,31,15.70
2018,05,30,13,32,15.70
2018,05,30,13,33,15.80
2018,05,30,13,34,15.80
2018,05,30,13,35,15.80
2018,05,30,13,36,15.80
2018,05,30,13,37,15.90
2018,05,30,13,38,15.90
2018,05,30,13,39,16.00
2018,05,30,13,40,16.10
2018,05,30,13,41,16.20
2018,05,30,13,42,16.20
2018,05,30,13,43,16.10
2018,05,30,13,44,16.10
2018,05,30,13,45,16.00
2018,05,30,13,46,15.90
2018,05,30,13,47,15.90
2018,05,30,13,48,15.80
2018,05,30,13,49,15.90
2018,05,30,13,50,15.90
2018,05,30,13,51,15.80
2018,05,30,13,52,15.80
2018,05,30,13,53,15.60
2018,05,30,13,54,15.50
2018,05,30,13,55,15.40
2018,05,30,13,56,15.40
2018,05,30,13,57,15.40
2018,05,30,13,58,15.50
2018,05,30,13,59,15.60
2018,05,30,14,00,15.60
2018,05,30,14,01,15.60
2018,05,30,14,02,15.50
2018,05,30,14,03,15.50
2018,05,30,14,04,15.40
2018,05,30,14,05,15.50
2018,05,30,14,06,15.50
2018,05,30,14,07,15.60
2018,05,30,14,08,15.60
2018,05,30,14,09,15.70
2018,05,30,14,10,15.80
2018,05,30,14,11,15.90
2018,05,30,14,12,16.00
2018,05,30,14,13,16.00
2018,05,30,14,14,16.00
2018,05,30,14,15,15.90
2018,05,30,14,16,15.90
2018,05,30,14,17,16.00
2018,05,30,14,18,16.00
2018,05,30,14,19,16.10
2018,05,30,14,20,16.10
2018,05,30,14,21,16.20
2018,05,30,14,22,16.30
2018,05,30,14,23,16.30
2018,05,30,14,24,16.40
2018,05,30,14,25,16.40
2018,05,30,14,26,16.40
2018,05,30,14,27,16.30
2018,05,30,14,28,16.30
2018,05,30,14,29,16.30
2018,05,30,14,30,16.20
2018,05,30,14,31,16.20
2018,05,30,14,32,16.30
2018,05,30,14,33,16.30
2018,05,30,14,34,16.20
2018,05,30,14,35,16.20
2018,05,30,14,36,16.10
2018,05,30,14,37,16.00
2018,05,30,14,38,15.90
2018,05,30,14,39,15.80
2018,05,30,14,40,15.80
2018,05,30,14,41,15.70
2018,05,30,14,42,15.70
2018,05,30,14,43,15.70
2018,05,30,14,44,15.60
2018,05,30,14,45,15.60
2018,05,30,14,46,15.60
2018,05,30,14,47,15.60
2018,05,30,14,48,15.60
2018,05,30,14,49,15.60
2018,05,30,14,50,15.70
2018,05,30,14,51,15.80
2018,05,30,14,52,15.80
2018,05,30,14,53,15.80
2018,05,30,14,54,15.80
2018,05,30,14,55,15.80
2018,05,30,14,56,15.90
2018,05,30,14,57,15.90
2018,05,30,14,58,15.90
2018,05,30,14,59,15.90
2018,05,30,15,00,15.90
2018,05,30,15,01,15.90
2018,05,30,15,02,15.90
2018,05,30,15,03,15.90
2018,05,30,15,04,16.00
2018,05,30,15,05,16.00
2018,05,30,15,06,16.10
2018,05,30,15,07,16.10
2018,05,30,15,08,16.20
2018,05,30,15,09,16.20
2018,05,30,15,10,16.20
2018,05,30,15,11,16.30
2018,05,30,15,12,16.20
2018,05,30,15,13,16.20
2018,05,30,15,14,16.20
2018,05,30,15,15,16.20
2018,05,30,15,16,16.20
2018,05,30,15,17,16.20
2018,05,30,15,18,16.10
2018,05,30,15,19,16.10
2018,05,30,15,20,16.20
2018,05,30,15,21,16.20
2018,05,30,15,22,16.20
2018,05,30,15,23,16.30
2018,05,30,15,24,16.30
2018,05,30,15,25,16.40
2018,05,30,15,26,16.40
2018,05,30,15,27,16.50
2018,05,30,15,28,16.60
2018,05,30,15,29,16.60
2018,05,30,15,30,16.60
2018,05,30,15,31,16.70
2018,05,30,15,32,16.70
2018,05,30,15,33,16.80
2018,05,30,15,34,16.80
2018,05,30,15,35,16.80
2018,05,30,15,36,16.80
2018,05,30,15,37,16.80
2018,05,30,15,38,16.80
2018,05,30,15,39,16.80
2018,05,30,15,40,16.80
2018,05,30,15,41,16.80
2018,05,30,15,42,16.80
2018,05,30,15,43,16.80
2018,05,30,15,44,16.70
2018,05,30,15,45,16.70
2018,05,30,15,46,16.60
2018,05,30,15,47,16.60
2018,05,30,15,48,16.60
2018,05,30,15,49,16.60
2018,05,30,15,50,16.60
2018,05,30,15,51,16.50
2018,05,30,15,52,16.50
2018,05,30,15,53,16.40
2018,05,30,15,54,16.40
2018,05,30,15,55,16.30
2018,05,30,15,56,16.20
2018,05,30,15,57,16.20
2018,05,30,15,58,16.20
2018,05,30,15,59,16.20
2018,05,30,16,00,16.10
2018,05,30,16,01,16.10
2018,05,30,16,02,16.00
2018,05,30,16,03,15.90
2018,05,30,16,04,15.90
2018,05,30,16,05,15.90
2018,05,30,16,06,15.90
2018,05,30,16,07,15.80
2018,05,30,16,08,15.80
2018,05,30,16,09,15.80
2018,05,30,16,10,15.90
2018,05,30,16,11,15.80
2018,05,30,16,12,15.80
2018,05,30,16,13,15.70
2018,05,30,16,14,15.70
2018,05,30,16,15,15.70
2018,05,30,16,16,15.60
2018,05,30,16,17,15.60
2018,05,30,16,18,15.60
2018,05,30,16,19,15.60
2018,05,30,16,20,15.60
2018,05,30,16,21,15.60
2018,05,30,16,22,15.60
2018,05,30,16,23,15.60
2018,05,30,16,24,15.70
2018,05,30,16,25,15.70
2018,05,30,16,26,15.80
2018,05,30,16,27,15.80
2018,05,30,16,28,15.90
2018,05,30,16,29,15.90
2018,05,30,16,30,16.00
2018,05,30,16,31,16.10
2018,05,30,16,32,16.10
2018,05,30,16,33,16.20
2018,05,30,16,34,16.20
2018,05,30,16,35,16.20
2018,05,30,16,36,16.20
2018,05,30,16,37,16.20
2018,05,30,16,38,16.20
2018,05,30,16,39,16.20
2018,05,30,16,40,16.20
2018,05,30,16,41,16.20
2018,05,30,16,42,16.20
2018,05,30,16,43,16.30
2018,05,30,16,44,16.30
2018,05,30,16,45,16.30
2018,05,30,16,46,16.30
2018,05,30,16,47,16.40
2018,05,30,16,48,16.40
2018,05,30,16,49,16.40
2018,05,30,16,50,16.40
2018,05,30,16,51,16.40
2018,05,30,16,52,16.30
2018,05,30,16,53,16.30
2018,05,30,16,54,16.20
2018,05,30,16,55,16.20
2018,05,30,16,56,16.20
2018,05,30,16,57,16.10
2018,05,30,16,58,16.10
2018,05,30,16,59,16.10
2018,05,30,17,00,16.10
2018,05,30,17,01,16.10
2018,05,30,17,02,16.10
2018,05,30,17,03,16.10
2018,05,30,17,04,16.10
2018,05,30,17,05,16.10
2018,05,30,17,06,16.10
2018,05,30,17,07,16.10
2018,05,30,17,08,16.10
2018,05,30,17,09,16.10
2018,05,30,17,10,16.10
2018,05,30,17,11,16.20
2018,05,30,17,12,16.20
2018,05,30,17,13,16.20
2018,05,30,17,14,16.20
2018,05,30,17,15,16.30
2018,05,30,17,16,16.30
2018,05,30,17,17,16.30
2018,05,30,17,18,16.30
2018,05,30,17,19,16.40
2018,05,30,17,20,16.40
2018,05,30,17,21,16.40
2018,05,30,17,22,16.40
2018,05,30,17,23,16.40
2018,05,30,17,24,16.30
2018,05,30,17,25,16.30
2018,05,30,17,26,16.30
2018,05,30,17,27,16.30
2018,05,30,17,28,16.30
2018,05,30,17,29,16.30
2018,05,30,17,30,16.30
2018,05,30,17,31,16.30
2018,05,30,17,32,16.30
2018,05,30,17,33,16.30
2018,05,30,17,34,16.30
2018,05,30,17,35,16.40
2018,05,30,17,36,16.40
2018,05,30,17,37,16.40
2018,05,30,17,38,16.40
2018,05,30,17,39,16.40
2018,05,30,17,40,16.40
2018,05,30,17,41,16.50
2018,05,30,17,42,16.50